Weather History for Crestview, FL

Change the Weather History Date:

Friday, February 22, 2013

  Actual Average Record
Temperature  
Mean Temperature 67 °F -  
Max Temperature 70 °F - - ()
Min Temperature 64 °F - - ()
Cooling Degree Days 2    
Growing Degree Days 17 (Base 50)    
Moisture  
Dew Point 67 °F    
Average Humidity 99    
Maximum Humidity 100    
Minimum Humidity 94    
Precipitation  
Precipitation 2.94 in - - ()
Sea Level Pressure  
Sea Level Pressure 29.93 in    
Wind  
Wind Speed 8 mph (SE)    
Max Wind Speed 17 mph    
Max Gust Speed 25 mph    
Visibility 3 miles    
Events Fog , Rain , Thunderstorm    
T = Trace of Precipitation, MM = Missing Value Source: NWS Daily Summary

Daily Weather History Graph

Daily Weather History Graph

Search for Another Location

Airport:

Trip Planner

Search our weather history database for the weather conditions in past years. The results will help you decide how hot, cold, wet, or windy it might be!

Date:

Astronomy

Feb. 22, 2013 Rise Set
Actual Time 6:19 AM CST 5:39 PM CST
Civil Twilight 5:55 AM CST 6:04 PM CST
Nautical Twilight 5:27 AM CST 6:32 PM CST
Astronomical Twilight 4:59 AM CST 7:00 PM CST
Moon 2:58 PM CST (2/22) 3:56 AM CST (2/22)
Length of Visible Light 12h 08m
Length of Day
11h 20m
Waxing Gibbous, 90% of the Moon is Illuminated
Feb 22
Waxing Gibbous
Feb 25
Full
Mar 4
Last Quarter
Mar 11
New
Mar 19
First Quarter

Hourly Weather History & Observations

Time (CST) Temp. Dew Point Humidity Pressure Visibility Wind Dir Wind Speed Gust Speed Precip Events Conditions
12:58 AM 64.9 °F 64.0 °F 97% 29.95 in 10.0 mi SSE 10.4 mph - N/A   Overcast
1:50 AM 66.2 °F 66.2 °F 100% 29.92 in 10.0 mi South 10.4 mph - N/A   Overcast
2:08 AM 66.2 °F 66.2 °F 100% 29.92 in 7.0 mi SSE 9.2 mph - N/A   Overcast
2:38 AM 66.2 °F 66.2 °F 100% 29.92 in 5.0 mi South 9.2 mph - N/A   Overcast
2:58 AM 66.0 °F 65.7 °F 99% 29.92 in 4.0 mi South 9.2 mph - N/A   Overcast
3:33 AM 66.2 °F 66.2 °F 100% 29.91 in 2.5 mi SSE 8.1 mph - N/A   Overcast
3:58 AM 66.2 °F 66.2 °F 100% 29.91 in 2.5 mi SSE 8.1 mph - N/A   Overcast
4:13 AM 66.2 °F 66.2 °F 100% 29.92 in 2.0 mi South 9.2 mph - N/A   Overcast
4:18 AM 66.2 °F 66.2 °F 100% 29.92 in 1.8 mi SSE 9.2 mph - N/A   Overcast
4:28 AM 66.2 °F 66.2 °F 100% 29.92 in 1.2 mi South 12.7 mph - N/A   Overcast
4:33 AM 66.2 °F 66.2 °F 100% 29.92 in 1.0 mi SSE 10.4 mph - N/A   Mist
4:48 AM 66.2 °F 66.2 °F 100% 29.91 in 1.0 mi SSE 10.4 mph - N/A   Mist
4:53 AM 66.2 °F 66.2 °F 100% 29.91 in 0.8 mi SSE 10.4 mph - N/A   Mist
4:58 AM 66.9 °F 66.6 °F 99% 29.92 in 0.8 mi SSE 9.2 mph - N/A   Mist
5:08 AM 66.2 °F 66.2 °F 100% 29.92 in 1.0 mi SSE 12.7 mph - N/A   Mist
5:14 AM 68.0 °F 66.2 °F 94% 29.92 in 1.0 mi SSE 12.7 mph - N/A   Light Drizzle
5:19 AM 68.0 °F 66.2 °F 94% 29.91 in 1.2 mi SSE 10.4 mph - N/A Rain Light Rain
5:24 AM 68.0 °F 66.2 °F 94% 29.92 in 1.2 mi SSE 15.0 mph - N/A Rain Light Rain
5:33 AM 68.0 °F 66.2 °F 94% 29.92 in 1.2 mi SSE 13.8 mph - N/A   Overcast
5:38 AM 68.0 °F 66.2 °F 94% 29.91 in 1.0 mi SSE 12.7 mph - N/A Thunderstorm Mist
5:58 AM 67.5 °F 67.1 °F 99% 29.90 in 1.0 mi SSE 15.0 mph - 0.00 in   Mist
5:59 AM 68.0 °F 68.0 °F 100% 29.90 in 1.0 mi SSE 16.1 mph - N/A Rain Light Rain
6:04 AM 68.0 °F 68.0 °F 100% 29.90 in 1.2 mi SSE 17.3 mph - N/A Rain Light Rain
6:12 AM 68.0 °F 68.0 °F 100% 29.89 in 1.0 mi SSE 17.3 mph 25.3 mph N/A   Mist
6:15 AM 68.0 °F 68.0 °F 100% 29.90 in 1.0 mi SSE 16.1 mph 25.3 mph N/A Rain Light Rain
6:20 AM 68.0 °F 66.2 °F 94% 29.90 in 0.8 mi South 17.3 mph 25.3 mph N/A Rain Light Rain
6:30 AM 68.0 °F 66.2 °F 94% 29.92 in 0.5 mi South 16.1 mph - N/A Fog Light Drizzle
6:45 AM 68.0 °F 66.2 °F 94% 29.93 in 1.0 mi South 13.8 mph - N/A Rain Light Rain
6:50 AM 68.0 °F 66.2 °F 94% 29.94 in 1.5 mi South 11.5 mph - N/A Rain Light Rain
6:55 AM 68.0 °F 66.2 °F 94% 29.94 in 1.8 mi South 8.1 mph - N/A Rain , Thunderstorm Light Rain
6:58 AM 68.0 °F 66.2 °F 94% 29.94 in 1.8 mi SSW 6.9 mph - 0.02 in Rain , Thunderstorm Light Rain
7:03 AM 68.0 °F 68.0 °F 100% 29.95 in 2.5 mi Variable 4.6 mph - N/A Rain , Thunderstorm Rain
7:08 AM 68.0 °F 68.0 °F 100% 29.94 in 3.0 mi Calm Calm - N/A Rain , Thunderstorm Light Rain
7:18 AM 68.0 °F 68.0 °F 100% 29.94 in 5.0 mi Variable 4.6 mph - N/A Rain , Thunderstorm Light Rain
7:23 AM 68.0 °F 68.0 °F 100% 29.94 in 5.0 mi Variable 3.5 mph - N/A Rain , Thunderstorm Light Rain
7:29 AM 68.0 °F 68.0 °F 100% 29.95 in 4.0 mi Variable 3.5 mph - N/A Rain , Thunderstorm Thunderstorms and Rain
7:51 AM 68.0 °F 68.0 °F 100% 29.98 in 5.0 mi NNW 5.8 mph - N/A Rain , Thunderstorm Light Rain
7:58 AM 67.6 °F 67.3 °F 99% 29.98 in 6.0 mi NNW 4.6 mph - 0.13 in Rain , Thunderstorm Light Rain
8:03 AM 68.0 °F 66.2 °F 94% 29.97 in 4.0 mi ESE 2.3 mph - N/A Rain , Thunderstorm Rain
8:08 AM 66.2 °F 66.2 °F 100% 29.97 in 3.0 mi Calm Calm - N/A Rain Rain
8:13 AM 68.0 °F 66.2 °F 94% 29.97 in 3.0 mi Calm Calm - N/A Rain Rain
8:18 AM 68.0 °F 66.2 °F 94% 29.95 in 3.0 mi ESE 9.2 mph - N/A Rain Rain
8:28 AM 68.0 °F 68.0 °F 100% 29.96 in 8.0 mi Variable 2.3 mph - N/A Rain Light Rain
8:29 AM 68.0 °F 68.0 °F 100% 29.96 in 8.0 mi NW 4.6 mph - N/A Rain , Thunderstorm Light Thunderstorms and Rain
8:34 AM 68.0 °F 68.0 °F 100% 29.96 in 7.0 mi North 3.5 mph - N/A Rain , Thunderstorm Light Thunderstorms and Rain
8:43 AM 68.0 °F 66.2 °F 94% 29.94 in 5.0 mi NNE 5.8 mph - N/A Rain Light Rain
8:56 AM 67.1 °F 66.7 °F 99% 29.96 in 6.0 mi NNE 5.8 mph - 0.12 in Rain Light Rain
9:45 AM 68.0 °F 68.0 °F 100% 29.95 in 6.0 mi ENE 2.3 mph - N/A   Overcast
9:56 AM 68.0 °F 67.6 °F 99% 29.97 in 5.0 mi East 4.6 mph - 0.00 in   Overcast
10:55 AM 68.5 °F 68.4 °F 99% 29.97 in 7.0 mi ENE 2.3 mph - N/A   Overcast
11:22 AM 68.0 °F 66.2 °F 94% 29.97 in 5.0 mi SE 5.8 mph - N/A   Overcast
11:33 AM 66.2 °F 66.2 °F 100% 29.97 in 0.8 mi South 9.2 mph - N/A Rain Light Rain
11:45 AM 66.2 °F 66.2 °F 100% 29.98 in 2.0 mi South 10.4 mph - N/A Rain Light Rain
11:56 AM 66.6 °F 66.2 °F 99% 29.99 in 2.0 mi SSE 5.8 mph - 0.02 in Rain Light Rain Showers
12:16 PM 66.2 °F 66.2 °F 100% 29.98 in 3.0 mi South 5.8 mph - N/A Rain Light Rain Showers
12:49 PM 66.2 °F 66.2 °F 100% 29.93 in 4.0 mi ENE 3.5 mph - N/A Rain , Thunderstorm Light Rain Showers
12:55 PM 65.5 °F 65.3 °F 99% 29.95 in 3.0 mi ENE 2.3 mph - 0.01 in Rain , Thunderstorm Light Thunderstorms and Rain
1:32 PM 66.2 °F 64.4 °F 94% 29.92 in 3.0 mi NE 3.5 mph - N/A Rain , Thunderstorm Rain
1:50 PM 66.2 °F 64.4 °F 94% 29.94 in 3.0 mi SSE 4.6 mph - N/A Rain , Thunderstorm Thunderstorms and Rain
1:55 PM 65.5 °F 65.1 °F 99% 29.95 in 1.0 mi SSE 4.6 mph - 0.11 in Rain , Thunderstorm Thunderstorms and Rain
2:10 PM 66.2 °F 64.4 °F 94% 29.93 in 0.5 mi SE 6.9 mph - N/A Fog , Rain , Thunderstorm Heavy Thunderstorms and Rain
2:24 PM 66.2 °F 64.4 °F 94% 29.92 in 1.5 mi SSE 8.1 mph - N/A Rain Heavy Rain
2:50 PM 66.2 °F 66.2 °F 100% 29.91 in 4.0 mi SE 6.9 mph - N/A Rain Light Rain
2:55 PM 66.2 °F 65.8 °F 99% 29.92 in 4.0 mi ESE 6.9 mph - 0.47 in Rain Light Rain
3:20 PM 66.2 °F 66.2 °F 100% 29.92 in 3.0 mi ESE 3.5 mph - N/A Rain Light Rain Showers
3:37 PM 66.2 °F 66.2 °F 100% 29.93 in 0.5 mi South 3.5 mph - N/A Fog , Rain , Thunderstorm Heavy Thunderstorms and Rain
3:55 PM 66.0 °F 65.7 °F 99% 29.94 in 0.5 mi SE 8.1 mph - 0.57 in Fog , Rain , Thunderstorm Heavy Thunderstorms and Rain
4:37 PM 66.2 °F 66.2 °F 100% 29.92 in 1.2 mi SE 6.9 mph - N/A Rain , Thunderstorm Heavy Thunderstorms and Rain
4:38 PM 66.2 °F 66.2 °F 100% 29.92 in 1.0 mi SE 5.8 mph - N/A Rain , Thunderstorm Heavy Thunderstorms and Rain
4:41 PM 66.2 °F 66.2 °F 100% 29.92 in 0.8 mi SE 4.6 mph - N/A Rain , Thunderstorm Heavy Thunderstorms and Rain
4:44 PM 66.2 °F 66.2 °F 100% 29.93 in 0.5 mi SSE 4.6 mph - N/A Fog , Rain , Thunderstorm Heavy Thunderstorms and Rain
4:52 PM 66.2 °F 66.2 °F 100% 29.91 in 0.8 mi ESE 6.9 mph - N/A Rain , Thunderstorm Heavy Thunderstorms and Rain
4:53 PM 66.2 °F 66.2 °F 100% 29.91 in 0.8 mi ESE 6.9 mph - N/A Rain , Thunderstorm Heavy Thunderstorms and Rain
4:55 PM 66.0 °F 65.7 °F 99% 29.91 in 0.5 mi ESE 6.9 mph - 1.00 in Fog , Rain , Thunderstorm Heavy Thunderstorms and Rain
4:57 PM 66.2 °F 66.2 °F 100% 29.92 in 1.0 mi SE 8.1 mph - N/A Rain , Thunderstorm Light Thunderstorms and Rain
4:59 PM 66.2 °F 66.2 °F 100% 29.92 in 1.2 mi SE 8.1 mph - N/A Rain , Thunderstorm Thunderstorms and Rain
5:00 PM 66.2 °F 66.2 °F 100% 29.92 in 1.5 mi SE 8.1 mph - N/A Rain Light Rain
5:01 PM 66.2 °F 66.2 °F 100% 29.92 in 2.0 mi SE 5.8 mph - N/A Rain Rain
5:02 PM 66.2 °F 66.2 °F 100% 29.92 in 2.5 mi SE 5.8 mph - N/A Rain Rain
5:03 PM 66.2 °F 66.2 °F 100% 29.92 in 3.0 mi SE 5.8 mph - N/A Rain Rain
5:08 PM 66.2 °F 66.2 °F 100% 29.92 in 2.5 mi ESE 5.8 mph - N/A Rain Light Rain
5:09 PM 66.2 °F 66.2 °F 100% 29.91 in 1.8 mi ESE 5.8 mph - N/A Rain Light Rain
5:11 PM 66.2 °F 66.2 °F 100% 29.92 in 1.2 mi Variable 5.8 mph - N/A Rain Heavy Rain
5:16 PM 66.2 °F 66.2 °F 100% 29.92 in 1.2 mi Variable 3.5 mph - N/A Rain Light Rain
5:17 PM 66.2 °F 66.2 °F 100% 29.93 in 1.2 mi Variable 4.6 mph - N/A Rain Heavy Rain
5:18 PM 66.2 °F 66.2 °F 100% 29.92 in 1.5 mi Variable 3.5 mph - N/A Rain Light Rain
5:19 PM 66.2 °F 66.2 °F 100% 29.92 in 2.0 mi East 3.5 mph - N/A Rain Light Rain
5:20 PM 66.2 °F 66.2 °F 100% 29.92 in 2.5 mi East 3.5 mph - N/A Rain Light Rain
5:21 PM 66.2 °F 66.2 °F 100% 29.92 in 3.0 mi Variable 3.5 mph - N/A Rain Light Rain
5:22 PM 66.2 °F 66.2 °F 100% 29.92 in 2.5 mi Variable 3.5 mph - N/A Rain Light Rain
5:23 PM 66.2 °F 66.2 °F 100% 29.92 in 2.0 mi Variable 4.6 mph - N/A Rain Light Rain
5:27 PM 66.2 °F 66.2 °F 100% 29.92 in 2.0 mi East 3.5 mph - N/A Rain Light Rain
5:31 PM 66.2 °F 66.2 °F 100% 29.92 in 2.5 mi ESE 3.5 mph - N/A Rain Light Rain
5:32 PM 66.2 °F 66.2 °F 100% 29.92 in 4.0 mi ESE 3.5 mph - N/A Rain Light Rain
5:34 PM 66.2 °F 66.2 °F 100% 29.92 in 6.0 mi ESE 4.6 mph - N/A Rain Light Rain
5:36 PM 66.2 °F 66.2 °F 100% 29.92 in 2.0 mi ESE 3.5 mph - N/A Rain Light Rain
5:37 PM 66.2 °F 66.2 °F 100% 29.92 in 10.0 mi ESE 4.6 mph - N/A   Light Drizzle
5:38 PM 66.2 °F 66.2 °F 100% 29.92 in 10.0 mi ESE 5.8 mph - N/A   Overcast
5:39 PM 66.2 °F 66.2 °F 100% 29.92 in 10.0 mi Variable 5.8 mph - N/A   Overcast
5:51 PM 66.2 °F 66.2 °F 100% 29.92 in 10.0 mi ESE 4.6 mph - N/A   Mostly Cloudy
5:53 PM 66.2 °F 66.2 °F 100% 29.92 in 10.0 mi ESE 5.8 mph - N/A   Mostly Cloudy
5:55 PM 66.2 °F 65.8 °F 99% 29.92 in 6.0 mi ESE 5.8 mph - 0.15 in   Overcast
5:59 PM 66.2 °F 66.2 °F 100% 29.91 in 10.0 mi ESE 6.9 mph - N/A   Light Drizzle
6:05 PM 66.2 °F 66.2 °F 100% 29.91 in 7.0 mi ESE 6.9 mph - N/A Rain Light Rain
6:12 PM 66.2 °F 66.2 °F 100% 29.91 in 5.0 mi ESE 5.8 mph - N/A   Overcast
6:13 PM 66.2 °F 66.2 °F 100% 29.91 in 9.0 mi SE 5.8 mph - N/A Rain Light Rain
6:14 PM 66.2 °F 66.2 °F 100% 29.91 in 10.0 mi SE 5.8 mph - N/A Rain Light Rain
6:43 PM 66.2 °F 66.2 °F 100% 29.91 in 3.0 mi SE 5.8 mph - N/A Rain , Thunderstorm Light Thunderstorms and Rain
6:48 PM 66.2 °F 66.2 °F 100% 29.91 in 0.5 mi SSE 6.9 mph - N/A Fog , Rain , Thunderstorm Heavy Thunderstorms and Rain
6:55 PM 66.6 °F 66.2 °F 99% 29.92 in 0.5 mi South 10.4 mph - - Rain , Thunderstorm Heavy Thunderstorms and Rain
7:17 PM 66.2 °F 66.2 °F 100% 29.92 in 2.5 mi South 8.1 mph - N/A Rain Light Rain
7:38 PM 66.2 °F 66.2 °F 100% 29.92 in 2.0 mi SSE 6.9 mph - N/A Rain Light Rain
7:55 PM 66.9 °F 66.2 °F 98% 29.92 in 2.0 mi South 5.8 mph - 0.31 in Rain Light Rain
8:05 PM 68.0 °F 68.0 °F 100% 29.91 in 1.0 mi SSW 8.1 mph - N/A   Overcast
8:09 PM 68.0 °F 68.0 °F 100% 29.91 in 0.8 mi South 8.1 mph - N/A   Overcast
8:15 PM 68.0 °F 68.0 °F 100% 29.92 in 0.5 mi South 9.2 mph - N/A Fog Fog
8:48 PM 68.0 °F 68.0 °F 100% 29.91 in 0.2 mi South 9.2 mph - N/A Fog Fog
8:55 PM 68.2 °F 67.8 °F 99% 29.92 in 0.2 mi South 8.1 mph - 0.00 in Fog Fog
9:25 PM 68.0 °F 68.0 °F 100% 29.91 in 0.8 mi South 9.2 mph - N/A Rain Light Rain
9:55 PM 68.5 °F 68.2 °F 99% 29.93 in 0.5 mi South 9.2 mph - 0.03 in Fog Light Drizzle
10:08 PM 68.0 °F 68.0 °F 100% 29.92 in 0.2 mi South 8.1 mph - N/A Fog Fog
10:55 PM 68.7 °F 68.4 °F 99% 29.91 in 0.2 mi South 6.9 mph - 0.00 in Fog Fog
11:55 PM 70.2 °F 69.8 °F 99% 29.91 in 0.5 mi SSW 12.7 mph - N/A Fog Fog
11:56 PM 69.8 °F 69.8 °F 100% 29.90 in 4.0 mi SSW 10.4 mph - N/A   Overcast